パンスターズ彗星

C/2014 W8 ( PanSTARRS )

English version
Home page
Updated on February 21, 2021

---------------------------------------------------------------------

・ プロフィール

発見日 2014年11月22日
発見光度 21.5等
発見者 Pan-STARRS 1 telescope (Haleakala)

・ 写真集

・ 軌道要素

Epoch 2015 Sept. 15.0 TT = JDT 2457280.5
T 2015 Sept. 10.33983 TT                                MPCW
q   5.0225822            (2000.0)            P               Q
z  +0.0051779      Peri.  228.04955     +0.08383404     -0.87795182
 +/-0.0033842      Node   224.84678     +0.99010477     +0.01997015
e   0.9739937      Incl.   41.94229     -0.11253622     -0.47833230
From 30 observations 2014 Nov. 22-Dec. 18, mean residual 0".5.

・ 光度変化

        m1 = 10.5 + 5 logΔ + 10.0 log r

---------------------------------------------------------------------

軌道要素はM.P.E.C. 2014-Y44に掲載されたものです。
光度グラフはComet for Windowsで作成したものです。

---------------------------------------------------------------------

Copyright(C) Seiichi Yoshida (comet@aerith.net). All rights reserved.